Regional Weather Roundup
Issued by NWS

Home | Current Version | Previous Version | Graphics & Text | Print | Product List | Glossary On
Versions: 1 2 3 4 5 6 7 8 9 10 11 12 13 14 15 16 17 18 19 20 21 22 23 24 25 26 27 28 29 30 31 32 33 34 35 36 37 38 39 40 41 42 43 44 45 46 47 48 49 50
000
ASUS45 KTFX 152010
RWRMT
MONTANA REGIONAL WEATHER ROUNDUP
NATIONAL WEATHER SERVICE GREAT FALLS MT
100 PM MST FRI DEC 15 2017

NOTE: "FAIR" INDICATES FEW OR NO CLOUDS BELOW 12000 FEET WITH NO
SIGNIFICANT WEATHER AND/OR OBSTRUCTIONS TO VISIBILITY.

MTZ001>007-043-152100-
WEST OF THE DIVIDE

CITY           SKY/WX    TMP DP  RH WIND       PRES   REMARKS
KALISPELL      LGT SNOW  28  27  93 CALM      29.97F VSB 3/4
MISSOULA       CLOUDY    26  24  92 CALM      29.99F FOG
BUTTE          FAIR      26  17  68 CALM      29.93F
MULLAN PASS    SNOW      25  24  96 W10G20    29.92  VSB 1/4 WCI  15
ANACONDA         N/A     39  18  41 SE12G18   29.89F WCI  32
DEER LODGE       N/A     16  16 100 CALM      29.95F VSB 1/4
EUREKA           N/A     30  28  93 MISG      29.97F
HAMILTON         N/A     23  21  93 CALM      29.98F VSB 1
LIBBY            N/A     28  27  93 SW3       29.98F
PLAINS           N/A     30  23  75 CALM      30.03F VSB 0
RONAN            N/A     27  24  88 CALM      30.02F
THOMPSON FALLS   N/A     30  25  82 CALM      30.07F
$$

MTZ008-052>055-152100-
SOUTHWEST MONTANA

CITY           SKY/WX    TMP DP  RH WIND       PRES   REMARKS
BOZEMAN        FAIR      20  18  92 CALM      29.93F
DILLON         FAIR      35  23  61 SW9       29.98F WCI  28
W YELLOWSTONE  CLOUDY    27  21  80 SW10G17   30.13F WCI  17
ENNIS          CLOUDY    32  25  74 S31G38    30.02F WCI  17
THREE FORKS      N/A     21  19  92 CALM      29.93F
TWIN BRIDGES     N/A     34  19  54 S2        29.97F
$$

MTZ009-010-012-014-046-048-049-054-152100-
EAST SLOPES AND CENTRAL MONTANA

CITY           SKY/WX    TMP DP  RH WIND       PRES   REMARKS
CUT BANK       FAIR      44  23  43 SW35G44   29.69F
GREAT FALLS    FAIR      47  14  26 SW26G41   29.76S
MALMSTROM AFB  FAIR      48  15  27 SW28G35   29.75F
HELENA         FAIR      24  21  88 W5        29.93F
BOWMANS CRNR   FAIR      40  18  40 S26       29.75F
CHOTEAU          N/A     54  23  30 W14G25    29.77S
FAIRFIELD      FAIR      49  18  28 S24G33    29.72F
POWER          FAIR      45  16  31 SW24G30   29.73F
RAYNESFORD     PTSUNNY   54  20  26 SW30G39   29.74F
ULM            PTSUNNY   49  15  26 SW25G32   29.78F
$$

MTZ011-013-016-021-045-047-050-051-152100-
NORTH CENTRAL MONTANA

CITY           SKY/WX    TMP DP  RH WIND       PRES   REMARKS
HAVRE          PTSUNNY   50  19  29 SW23G30   29.66F
LEWISTOWN      FAIR      47  23  38 SW16      29.71F
N BAR RANCH    FAIR      54  12  19 N6        29.72F
CHINOOK          N/A     54  19  26 W26G36    29.62F
DENTON         PTSUNNY   54  17  23 W23       29.66S
GEYSER         PTSUNNY   51  17  25 W33G41    29.67F
GRASS RANGE    FAIR      52  18  25 W6        29.65F
STANFORD       FAIR      53  17  24 W36G47    29.67F
WINIFRED       FAIR      53  16  23 W12       29.67F
$$

MTZ017>020-022>027-061-062-152100-
NORTHEAST MONTANA

CITY           SKY/WX    TMP DP  RH WIND       PRES   REMARKS
GLASGOW        FAIR      39  22  50 NW3       29.62F
GLENDIVE       FAIR      47  20  34 W8        29.62F
JORDAN           N/A     48  19  31 W17       29.65F
SIDNEY         FAIR      47  21  35 W23G30    29.58F
WOLF POINT     FAIR      44  23  43 W8        29.62F
MALTA          SUNNY     52  25  35 W15       29.61F
PLENTYWOOD       N/A     45  27  49 W15       29.55F
POPLAR           N/A     43  21  42 W16       29.60F
SCOBEY           N/A     45  26  47 SW5       29.57F
$$

MTZ028>42-056>058-152100-
SOUTHCENTRAL AND SOUTHEAST MONTANA

CITY           SKY/WX    TMP DP  RH WIND       PRES   REMARKS
BAKER          FAIR      43  27  53 W15       29.65F
BILLINGS       CLOUDY    45  17  32 SW23G29   29.75F
LIVINGSTON     FAIR      43  23  45 SW45G60   29.80F
MILES CITY     FAIR      49  20  31 W12       29.67F
BIG TIMBER     SUNNY     48  16  27 W36G45    29.82F
FORSYTH          N/A     54  16  22 W15       29.68F
LAUREL           N/A     45  14  29 SW20G26   29.77F
ROUNDUP          N/A     53  13  20 SW14      29.66F
$$

REGIONAL REPORTS...DAKOTAS

CITY           SKY/WX    TMP DP  RH WIND       PRES   REMARKS
WILLISTON      MOSUNNY   41  23  48 W8        29.56F
MINOT          CLOUDY    39  25  57 W9        29.53F
DICKINSON      FAIR      45  23  42 W21G30    29.58F
BEACH          FAIR      43  23  45 W13       29.65F
CROSBY         FAIR      41  27  56 W12       29.53F
TIOGA          FAIR      39  28  65 W14       29.54F WCI  31
WATFORD CITY   FAIR      43  23  45 W12       29.57F
BISMARCK       CLOUDY    43  25  49 W9        29.60F
GRAND FORKS    FLURRIES  22  18  85 S13       29.70F WCI  10
FARGO          CLOUDY    26  21  81 S14       29.71F WCI  14
BUFFALO SD       N/A     48  23  37 W18       29.60F
RAPID CITY     FAIR      55  16  21 S7        29.71F
$$

REGIONAL REPORTS...WYOMING/IDAHO/WASHINGTON

CITY           SKY/WX    TMP DP  RH WIND       PRES   REMARKS
GILLETTE       FAIR      51  18  27 SW17      29.77F
SHERIDAN       FAIR      46  23  40 NE3       29.75F
BUFFALO WY     FAIR      59   5  11 SE6       29.78F
CODY           FAIR      31  21  66 W5        29.88F
YELLOWSTONE LA   N/A     23  20  88 CALM      30.13F
IDAHO FALLS    PTSUNNY   25  22  88 NE3       30.20F
SALMON         CLOUDY    27  20  75 E6        30.15F WCI  20
BOISE          CLOUDY    27  22  81 CALM      30.24F
SPOKANE        SNOW      26  26 100 SW7       30.08F VSB 1/4 WCI  18
$$

REGIONAL REPORTS...ALBERTA

CITY           SKY/WX    TMP DP  RH WIND       PRES   REMARKS
EDMONTON       SUNNY     41  21  45 W14G30    29.65R
CALGARY        PTSUNNY   43  30  61 N13       29.71S
LETHBRIDGE     PTSUNNY   46  25  42 NW18      29.71R
MEDICINE HAT   CLOUDY    43  27  52 NW8       29.68R
$$

REGIONAL REPORTS...SASKATCHEWAN

CITY           SKY/WX    TMP DP  RH WIND       PRES   REMARKS
SWIFT CURRENT  CLOUDY    39  23  52 W10       29.57S
REGINA         CLOUDY    37  30  75 W14       29.48F WCI  29
SASKATOON      CLOUDY    37  34  87 W14       29.49S WCI  29
$$



USA.gov is the U.S. government's official web portal to all federal, state and local government web resources and services.